Weather History for KMGC - March, 2014

Change the Weather History Date:

Tuesday, March 25, 2014

  Actual Average (KVPZ) Record (KVPZ)
Temperature  
Mean Temperature 26 °F 41 °F  
Max Temperature 30 °F 51 °F 74 °F (2003)
Min Temperature 23 °F 32 °F 7 °F (1974)
Degree Days  
Heating Degree Days 38 24  
Month to date heating degree days 709  
Since 1 July heating degree days 5441  
Cooling Degree Days 0 0  
Month to date cooling degree days 0  
Year to date cooling degree days 0  
Moisture  
Dew Point 12 °F    
Average Humidity 56    
Maximum Humidity 86    
Minimum Humidity 43    
Precipitation  
Precipitation 0.00 in 0.10 in 1.95 in (1904)
Month to date precipitation 1.94  
Year to date precipitation 5.11  
Sea Level Pressure  
Sea Level Pressure 30.09 in    
Wind  
Wind Speed 8 mph (NW)    
Max Wind Speed 16 mph    
Max Gust Speed 26 mph    
Visibility 9 miles    
Events Snow    
T = Trace of Precipitation, MM = Missing Value Source: NWS Daily Summary

Daily Weather History Graph

Daily Weather History Graph

Search for Another Location

Airport or City:

Trip Planner

Search our weather history database for the weather conditions in past years. The results will help you decide how hot, cold, wet, or windy it might be!

Date:

Astronomy

Mar. 25, 2014 Rise Set
Actual Time 6:42 AM CDT 7:05 PM CDT
Civil Twilight 6:14 AM CDT 7:32 PM CDT
Nautical Twilight 5:41 AM CDT 8:05 PM CDT
Astronomical Twilight 5:08 AM CDT 8:39 PM CDT
Moon 3:07 AM CDT (3/25) 1:31 PM CDT (3/25)
Length of Visible Light 13h 18m
Length of Day
12h 22m
Waning Crescent, 32% of the Moon is Illuminated
Mar 25
Waning Crescent
Mar 30
New
Apr 7
First Quarter
Apr 15
Full
Apr 22
Last Quarter

Hourly Weather History & Observations

Time (CDT) Temp. Windchill Dew Point Humidity Pressure Visibility Wind Dir Wind Speed Gust Speed Precip Events Conditions
12:15 AM 26.6 °F 21.2 °F 10.4 °F 51% 30.07 in 10.0 mi SSW 4.6 mph - N/A   Clear
12:35 AM 26.6 °F 21.2 °F 10.4 °F 51% 30.06 in 10.0 mi SSW 4.6 mph - N/A   Clear
12:55 AM 26.6 °F 21.2 °F 10.4 °F 51% 30.05 in 10.0 mi SSW 4.6 mph - N/A   Clear
1:15 AM 26.6 °F 21.2 °F 12.2 °F 55% 30.04 in 10.0 mi SSW 4.6 mph - N/A   Scattered Clouds
1:35 AM 28.4 °F 20.4 °F 15.8 °F 59% 30.04 in 10.0 mi SSW 8.1 mph - N/A   Overcast
1:55 AM 28.4 °F 20.4 °F 15.8 °F 59% 30.03 in 10.0 mi SSW 8.1 mph - N/A   Overcast
2:15 AM 28.4 °F 21.2 °F 14.0 °F 55% 30.02 in 10.0 mi SSW 6.9 mph - N/A   Overcast
2:35 AM 28.4 °F 19.7 °F 15.8 °F 59% 30.01 in 10.0 mi SW 9.2 mph - N/A   Overcast
2:55 AM 28.4 °F 20.4 °F 15.8 °F 59% 30.00 in 10.0 mi SW 8.1 mph - N/A   Overcast
3:15 AM 30.2 °F 22.6 °F 17.6 °F 60% 29.99 in 10.0 mi SW 8.1 mph - N/A   Overcast
3:35 AM 30.2 °F 21.9 °F 17.6 °F 60% 29.99 in 10.0 mi WSW 9.2 mph - N/A   Overcast
3:55 AM 30.2 °F 21.9 °F 19.4 °F 64% 29.98 in 10.0 mi SW 9.2 mph - N/A   Overcast
4:15 AM 28.4 °F 18.5 °F 21.2 °F 74% 29.99 in 4.0 mi North 11.5 mph 17.3 mph N/A Snow Light Snow
4:35 AM 26.6 °F 18.2 °F 23.0 °F 86% 29.99 in 1.0 mi NNW 8.1 mph - N/A Snow Light Snow
4:55 AM 26.6 °F 22.6 °F 23.0 °F 86% 29.99 in 1.5 mi NNW 3.5 mph - N/A Snow Light Snow
5:15 AM 26.6 °F - 21.2 °F 80% 29.99 in 1.8 mi Calm Calm - N/A Snow Light Snow
5:35 AM 26.6 °F - 23.0 °F 86% 29.99 in 1.8 mi Calm Calm - N/A Snow Light Snow
5:55 AM 26.6 °F 19.1 °F 23.0 °F 86% 29.99 in 2.0 mi NW 6.9 mph - N/A Snow Light Snow
6:15 AM 26.6 °F 16.8 °F 23.0 °F 86% 29.99 in 1.5 mi North 10.4 mph - N/A Snow Light Snow
6:35 AM 26.6 °F 18.2 °F 21.2 °F 80% 29.99 in 3.0 mi NNW 8.1 mph 16.1 mph N/A Snow Light Snow
6:55 AM 26.6 °F 19.1 °F 19.4 °F 74% 30.00 in 10.0 mi NNW 6.9 mph - N/A   Overcast
7:15 AM 26.6 °F 18.2 °F 17.6 °F 69% 30.00 in 10.0 mi NW 8.1 mph - N/A   Overcast
7:35 AM 26.6 °F 17.5 °F 14.0 °F 59% 30.01 in 10.0 mi NNW 9.2 mph 17.3 mph N/A   Overcast
7:55 AM 28.4 °F 20.4 °F 14.0 °F 55% 30.01 in 10.0 mi NW 8.1 mph 16.1 mph N/A   Overcast
8:15 AM 28.4 °F 20.4 °F 14.0 °F 55% 30.02 in 10.0 mi NNW 8.1 mph - N/A   Overcast
8:35 AM 28.4 °F 19.1 °F 14.0 °F 55% 30.02 in 10.0 mi NNW 10.4 mph 17.3 mph N/A   Overcast
8:55 AM 28.4 °F 18.5 °F 12.2 °F 51% 30.03 in 10.0 mi NW 11.5 mph 18.4 mph N/A   Overcast
9:15 AM 28.4 °F 19.1 °F 12.2 °F 51% 30.03 in 10.0 mi NW 10.4 mph 17.3 mph N/A   Mostly Cloudy
9:35 AM 28.4 °F 18.5 °F 14.0 °F 55% 30.05 in 10.0 mi NW 11.5 mph 20.7 mph N/A   Mostly Cloudy
9:55 AM 28.4 °F 18.0 °F 14.0 °F 55% 30.05 in 10.0 mi NW 12.7 mph 21.9 mph N/A   Mostly Cloudy
10:15 AM 28.4 °F 18.5 °F 14.0 °F 55% 30.06 in 10.0 mi NNW 11.5 mph 19.6 mph N/A   Mostly Cloudy
10:35 AM 28.4 °F 17.0 °F 14.0 °F 55% 30.07 in 10.0 mi NW 15.0 mph 20.7 mph N/A   Mostly Cloudy
10:55 AM 28.4 °F 16.6 °F 14.0 °F 55% 30.08 in 10.0 mi NW 16.1 mph 21.9 mph N/A   Mostly Cloudy
11:15 AM 28.4 °F 16.6 °F 14.0 °F 55% 30.08 in 10.0 mi NW 16.1 mph 23.0 mph N/A   Overcast
11:35 AM 28.4 °F 17.0 °F 14.0 °F 55% 30.09 in 10.0 mi NNW 15.0 mph 21.9 mph N/A   Overcast
11:55 AM 28.4 °F 19.1 °F 14.0 °F 55% 30.10 in 10.0 mi NW 10.4 mph 25.3 mph N/A   Overcast
12:15 PM 28.4 °F 17.5 °F 12.2 °F 51% 30.10 in 10.0 mi NW 13.8 mph 25.3 mph N/A   Overcast
12:35 PM 28.4 °F 16.6 °F 14.0 °F 55% 30.10 in 10.0 mi NNW 16.1 mph 21.9 mph N/A   Overcast
12:55 PM 26.6 °F 16.2 °F 12.2 °F 55% 30.10 in 10.0 mi NNW 11.5 mph 26.5 mph N/A   Overcast
1:15 PM 26.6 °F 16.2 °F 12.2 °F 55% 30.11 in 10.0 mi NW 11.5 mph 18.4 mph N/A   Overcast
1:35 PM 28.4 °F 17.5 °F 12.2 °F 51% 30.11 in 10.0 mi NW 13.8 mph 21.9 mph N/A   Mostly Cloudy
1:55 PM 28.4 °F 19.7 °F 12.2 °F 51% 30.11 in 10.0 mi NW 9.2 mph 23.0 mph N/A   Mostly Cloudy
2:15 PM 26.6 °F 16.2 °F 10.4 °F 51% 30.11 in 10.0 mi NNW 11.5 mph 20.7 mph N/A   Overcast
2:35 PM 26.6 °F 14.3 °F 10.4 °F 51% 30.12 in 10.0 mi NNW 16.1 mph 20.7 mph N/A   Overcast
2:55 PM 26.6 °F 14.3 °F 10.4 °F 51% 30.12 in 10.0 mi NW 16.1 mph 24.2 mph N/A   Mostly Cloudy
3:15 PM 26.6 °F 16.2 °F 12.2 °F 55% 30.12 in 10.0 mi NNW 11.5 mph 23.0 mph N/A   Scattered Clouds
3:35 PM 26.6 °F 16.2 °F 12.2 °F 55% 30.12 in 10.0 mi NNW 11.5 mph 20.7 mph N/A   Scattered Clouds
3:55 PM 26.6 °F 15.7 °F 12.2 °F 55% 30.13 in 10.0 mi NNW 12.7 mph 23.0 mph N/A   Mostly Cloudy
4:15 PM 26.6 °F 14.3 °F 10.4 °F 51% 30.13 in 10.0 mi NNW 16.1 mph 23.0 mph N/A   Scattered Clouds
4:35 PM 26.6 °F 14.3 °F 10.4 °F 51% 30.13 in 10.0 mi NNW 16.1 mph 20.7 mph N/A   Scattered Clouds
4:55 PM 26.6 °F 16.2 °F 10.4 °F 51% 30.14 in 10.0 mi NNW 11.5 mph 17.3 mph N/A   Scattered Clouds
5:15 PM 26.6 °F 15.2 °F 8.6 °F 47% 30.14 in 10.0 mi NNW 13.8 mph 20.7 mph N/A   Scattered Clouds
5:35 PM 26.6 °F 16.2 °F 8.6 °F 47% 30.14 in 10.0 mi NNW 11.5 mph 19.6 mph N/A   Scattered Clouds
5:55 PM 26.6 °F 16.8 °F 8.6 °F 47% 30.14 in 10.0 mi NW 10.4 mph 16.1 mph N/A   Scattered Clouds
6:15 PM 24.8 °F 16.9 °F 8.6 °F 50% 30.15 in 10.0 mi NNW 6.9 mph 18.4 mph N/A   Scattered Clouds
6:35 PM 24.8 °F 15.3 °F 8.6 °F 50% 30.16 in 10.0 mi NNW 9.2 mph - N/A   Scattered Clouds
6:55 PM 23.0 °F 13.9 °F 6.8 °F 50% 30.16 in 10.0 mi NW 8.1 mph - N/A   Scattered Clouds
7:15 PM 23.0 °F 14.7 °F 6.8 °F 50% 30.17 in 10.0 mi NW 6.9 mph - N/A   Scattered Clouds
7:35 PM 23.0 °F 14.7 °F 6.8 °F 50% 30.17 in 10.0 mi NW 6.9 mph - N/A   Scattered Clouds
7:55 PM 23.0 °F 14.7 °F 6.8 °F 50% 30.17 in 10.0 mi NW 6.9 mph 17.3 mph N/A   Scattered Clouds
8:15 PM 23.0 °F 13.1 °F 6.8 °F 50% 30.17 in 10.0 mi NNW 9.2 mph 17.3 mph N/A   Scattered Clouds
8:35 PM 23.0 °F 13.9 °F 5.0 °F 46% 30.18 in 10.0 mi NW 8.1 mph - N/A   Scattered Clouds
8:55 PM 24.8 °F 15.3 °F 5.0 °F 43% 30.19 in 10.0 mi NW 9.2 mph 17.3 mph N/A   Scattered Clouds
9:15 PM 23.0 °F 13.9 °F 5.0 °F 46% 30.19 in 10.0 mi NW 8.1 mph - N/A   Scattered Clouds
9:35 PM 24.8 °F 16.1 °F 5.0 °F 43% 30.20 in 10.0 mi NW 8.1 mph - N/A   Mostly Cloudy
9:55 PM 24.8 °F 15.3 °F 5.0 °F 43% 30.20 in 10.0 mi NW 9.2 mph 16.1 mph N/A   Overcast
10:15 PM 24.8 °F 15.3 °F 6.8 °F 46% 30.21 in 10.0 mi NW 9.2 mph - N/A   Overcast
10:35 PM 24.8 °F 16.9 °F 5.0 °F 43% 30.21 in 10.0 mi NW 6.9 mph - N/A   Overcast
10:55 PM 24.8 °F 16.9 °F 6.8 °F 46% 30.22 in 10.0 mi NW 6.9 mph - N/A   Overcast
11:15 PM 24.8 °F 14.6 °F 5.0 °F 43% 30.22 in 10.0 mi NW 10.4 mph - N/A   Overcast
11:35 PM 24.8 °F 16.1 °F 5.0 °F 43% 30.22 in 10.0 mi NNW 8.1 mph 16.1 mph N/A   Overcast
11:55 PM 24.8 °F 15.3 °F 6.8 °F 46% 30.22 in 10.0 mi NW 9.2 mph - N/A   Overcast